| time (UTC) | temp C | wind direction | speed KPH | gust KPH | rain 1hr cm | rain 24hr cm | rain mn cm | humidity % | barometer mb |
| 20260507170528 | 30 | 342 | 12.9 | 29.0 | 0.00 | 0.00 | 0.00 | 52 | 1002.4 |
| 20260507170043 | 30 | 300 | 12.9 | 29.0 | 0.00 | 0.00 | 0.00 | 53 | 1002.4 |
| 20260507165530 | 30 | 296 | 14.5 | 29.0 | 0.00 | 0.00 | 0.00 | 51 | 1002.4 |
| 20260507165029 | 30 | 345 | 12.9 | 27.4 | 0.00 | 0.00 | 0.00 | 54 | 1002.5 |
| 20260507164536 | 30 | 328 | 9.7 | 32.2 | 0.00 | 0.00 | 0.00 | 55 | 1002.5 |
| 20260507164028 | 30 | 308 | 14.5 | 32.2 | 0.00 | 0.00 | 0.00 | 56 | 1002.6 |
| 20260507163529 | 30 | 339 | 11.3 | 32.2 | 0.00 | 0.00 | 0.00 | 56 | 1002.8 |
| 20260507163034 | 30 | 326 | 12.9 | 27.4 | 0.00 | 0.00 | 0.00 | 57 | 1003.0 |
| 20260507162528 | 29 | 327 | 9.7 | 27.4 | 0.00 | 0.00 | 0.00 | 57 | 1003.0 |
| 20260507162028 | 29 | 330 | 12.9 | 29.0 | 0.00 | 0.00 | 0.00 | 57 | 1003.2 |
| 20260507161545 | 29 | 335 | 14.5 | 37.0 | 0.00 | 0.00 | 0.00 | 57 | 1003.2 |
| 20260507161030 | 29 | 325 | 12.9 | 38.6 | 0.00 | 0.00 | 0.00 | 56 | 1003.4 |
| 20260507160611 | 30 | 352 | 19.3 | 38.6 | 0.00 | 0.00 | 0.00 | 54 | 1003.4 |
| 20260507160036 | 30 | 328 | 17.7 | 35.4 | 0.00 | 0.00 | 0.00 | 53 | 1003.2 |
| 20260507155530 | 30 | 18 | 9.7 | 33.8 | 0.00 | 0.00 | 0.00 | 57 | 1003.8 |
| 20260507155028 | 30 | 312 | 16.1 | 37.0 | 0.00 | 0.00 | 0.00 | 55 | 1003.8 |
| 20260507154535 | 30 | 309 | 20.9 | 37.0 | 0.00 | 0.00 | 0.00 | 55 | 1003.6 |
| 20260507154027 | 29 | 317 | 12.9 | 38.6 | 0.00 | 0.00 | 0.00 | 58 | 1003.8 |
| 20260507153527 | 28 | 296 | 14.5 | 38.6 | 0.00 | 0.00 | 0.00 | 58 | 1003.9 |
| 20260507153043 | 29 | 6 | 17.7 | 35.4 | 0.00 | 0.00 | 0.00 | 58 | 1004.0 |
| 20260507152527 | 28 | 337 | 14.5 | 35.4 | 0.00 | 0.00 | 0.00 | 60 | 1004.2 |
| 20260507152027 | 28 | 300 | 11.3 | 29.0 | 0.00 | 0.00 | 0.00 | 62 | 1004.3 |
| 20260507151543 | 27 | 336 | 16.1 | 32.2 | 0.00 | 0.00 | 0.00 | 62 | 1004.2 |
| 20260507151027 | 28 | 324 | 14.5 | 33.8 | 0.00 | 0.00 | 0.00 | 61 | 1004.7 |
| 20260507150527 | 28 | 346 | 12.9 | 33.8 | 0.00 | 0.00 | 0.00 | 61 | 1004.9 |
| 20260507150041 | 28 | 4 | 14.5 | 33.8 | 0.00 | 0.00 | 0.00 | 61 | 1004.7 |
| 20260507145528 | 28 | 298 | 12.9 | 32.2 | 0.00 | 0.00 | 0.00 | 63 | 1005.0 |
| 20260507145028 | 28 | 318 | 17.7 | 37.0 | 0.00 | 0.00 | 0.00 | 62 | 1005.0 |
| 20260507144539 | 28 | 336 | 16.1 | 37.0 | 0.00 | 0.00 | 0.00 | 62 | 1005.1 |
| 20260507144028 | 28 | 358 | 19.3 | 37.0 | 0.00 | 0.00 | 0.00 | 62 | 1005.2 |
| 20260507143530 | 28 | 12 | 19.3 | 37.0 | 0.00 | 0.00 | 0.00 | 62 | 1005.1 |
| 20260507143045 | 28 | 324 | 16.1 | 40.2 | 0.00 | 0.00 | 0.00 | 61 | 1005.4 |
| 20260507142527 | 28 | 331 | 19.3 | 41.8 | 0.00 | 0.00 | 0.00 | 62 | 1005.5 |
| 20260507142027 | 28 | 355 | 19.3 | 41.8 | 0.00 | 0.00 | 0.00 | 63 | 1005.5 |
| 20260507141541 | 28 | 356 | 20.9 | 37.0 | 0.00 | 0.00 | 0.00 | 62 | 1005.8 |
| 20260507141027 | 28 | 346 | 20.9 | 37.0 | 0.00 | 0.00 | 0.00 | 63 | 1005.9 |
| 20260507140528 | 28 | 324 | 20.9 | 38.6 | 0.00 | 0.00 | 0.00 | 62 | 1006.2 |
| 20260507140045 | 28 | 328 | 19.3 | 38.6 | 0.00 | 0.00 | 0.00 | 63 | 1006.2 |
| 20260507135531 | 27 | 355 | 16.1 | 33.8 | 0.00 | 0.00 | 0.00 | 65 | 1006.4 |
| 20260507135028 | 27 | 347 | 14.5 | 37.0 | 0.00 | 0.00 | 0.00 | 65 | 1006.5 |
| 20260507134542 | 27 | 10 | 17.7 | 37.0 | 0.00 | 0.00 | 0.00 | 63 | 1006.8 |
| 20260507134211 | 27 | 335 | 16.1 | 35.4 | 0.00 | 0.00 | 0.00 | 64 | 1006.7 |
| 20260507133528 | 27 | 3 | 16.1 | 35.4 | 0.00 | 0.00 | 0.00 | 65 | 1007.2 |
| 20260507133045 | 27 | 349 | 17.7 | 37.0 | 0.00 | 0.00 | 0.00 | 65 | 1007.3 |
| 20260507132527 | 27 | 311 | 17.7 | 37.0 | 0.00 | 0.00 | 0.00 | 65 | 1007.5 |
| 20260507132027 | 27 | 345 | 14.5 | 38.6 | 0.00 | 0.00 | 0.00 | 67 | 1007.6 |
| 20260507131555 | 27 | 357 | 16.1 | 38.6 | 0.00 | 0.00 | 0.00 | 66 | 1007.7 |
| 20260507131028 | 26 | 339 | 14.5 | 27.4 | 0.00 | 0.00 | 0.00 | 68 | 1007.9 |
| 20260507130529 | 26 | 11 | 12.9 | 29.0 | 0.00 | 0.00 | 0.00 | 68 | 1008.0 |
| 20260507130055 | 26 | 332 | 14.5 | 29.0 | 0.00 | 0.00 | 0.00 | 68 | 1008.1 |
| 20260507125528 | 26 | 349 | 9.7 | 25.7 | 0.00 | 0.00 | 0.00 | 70 | 1008.1 |
| 20260507125028 | 26 | 337 | 11.3 | 32.2 | 0.00 | 0.00 | 0.00 | 69 | 1008.1 |
| 20260507124547 | 26 | 322 | 11.3 | 32.2 | 0.00 | 0.00 | 0.00 | 69 | 1008.3 |
| 20260507124028 | 26 | 314 | 11.3 | 24.1 | 0.00 | 0.00 | 0.00 | 69 | 1008.1 |
| 20260507123528 | 26 | 322 | 11.3 | 22.5 | 0.00 | 0.00 | 0.00 | 69 | 1008.2 |
| 20260507123035 | 26 | 353 | 8.0 | 22.5 | 0.00 | 0.00 | 0.00 | 71 | 1008.3 |
| 20260507122523 | 26 | 338 | 8.0 | 24.1 | 0.00 | 0.00 | 0.00 | 69 | 1008.2 |
| 20260507122024 | 26 | 320 | 11.3 | 24.1 | 0.00 | 0.00 | 0.00 | 69 | 1008.1 |
| 20260507121535 | 26 | 320 | 11.3 | 25.7 | 0.00 | 0.00 | 0.00 | 69 | 1008.2 |
| 20260507121027 | 26 | 306 | 9.7 | 25.7 | 0.00 | 0.00 | 0.00 | 69 | 1008.3 |
| 20260507120523 | 26 | 335 | 9.7 | 24.1 | 0.00 | 0.00 | 0.00 | 69 | 1008.3 |
| 20260507120041 | 26 | 348 | 8.0 | 24.1 | 0.00 | 0.00 | 0.00 | 69 | 1008.5 |
| 20260507115523 | 26 | 322 | 8.0 | 24.1 | 0.00 | 0.00 | 0.00 | 70 | 1008.4 |
| 20260507115023 | 25 | 321 | 8.0 | 24.1 | 0.00 | 0.00 | 0.00 | 70 | 1008.4 |
| 20260507114548 | 25 | 318 | 6.4 | 19.3 | 0.00 | 0.00 | 0.00 | 70 | 1008.5 |
| 20260507114026 | 25 | 333 | 8.0 | 19.3 | 0.00 | 0.00 | 0.00 | 71 | 1008.7 |
| 20260507113524 | 25 | 316 | 6.4 | 17.7 | 0.00 | 0.00 | 0.00 | 71 | 1008.6 |
| 20260507113039 | 25 | 342 | 6.4 | 17.7 | 0.00 | 0.00 | 0.00 | 72 | 1008.5 |
| 20260507112524 | 25 | 348 | 8.0 | 24.1 | 0.00 | 0.00 | 0.00 | 71 | 1008.3 |
| 20260507112024 | 25 | 347 | 8.0 | 24.1 | 0.00 | 0.00 | 0.00 | 71 | 1008.3 |
| 20260507111535 | 26 | 349 | 6.4 | 17.7 | 0.00 | 0.00 | 0.00 | 71 | 1008.4 |
| 20260507111023 | 26 | 338 | 6.4 | 16.1 | 0.00 | 0.00 | 0.00 | 71 | 1008.1 |
| 20260507110523 | 25 | 6 | 6.4 | 16.1 | 0.00 | 0.00 | 0.00 | 71 | 1008.1 |
| 20260507110044 | 25 | 22 | 6.4 | 14.5 | 0.00 | 0.00 | 0.00 | 72 | 1008.0 |
| 20260507105524 | 25 | 31 | 6.4 | 14.5 | 0.00 | 0.00 | 0.00 | 72 | 1007.9 |
| 20260507105023 | 25 | 6 | 6.4 | 17.7 | 0.00 | 0.00 | 0.00 | 72 | 1007.8 |
| 20260507104544 | 25 | 17 | 4.8 | 17.7 | 0.00 | 0.00 | 0.00 | 73 | 1007.9 |
| 20260507104027 | 25 | 3 | 4.8 | 19.3 | 0.00 | 0.00 | 0.00 | 74 | 1008.1 |
| 20260507103527 | 24 | 357 | 3.2 | 20.9 | 0.00 | 0.00 | 0.00 | 76 | 1008.1 |
| 20260507103043 | 23 | 12 | 6.4 | 20.9 | 0.00 | 0.00 | 0.00 | 76 | 1008.1 |
| 20260507102523 | 23 | 20 | 3.2 | 8.0 | 0.00 | 0.00 | 0.00 | 78 | 1008.1 |
| 20260507102027 | 23 | 16 | 1.6 | 4.8 | 0.00 | 0.00 | 0.00 | 78 | 1008.0 |
| 20260507101538 | 23 | 46 | 1.6 | 6.4 | 0.00 | 0.00 | 0.00 | 78 | 1008.0 |
| 20260507101023 | 23 | 46 | 1.6 | 6.4 | 0.00 | 0.00 | 0.00 | 78 | 1008.0 |
| 20260507100611 | 23 | 41 | 0.0 | 4.8 | 0.00 | 0.00 | 0.00 | 77 | 1008.0 |
| 20260507100040 | 23 | 41 | 0.0 | 4.8 | 0.00 | 0.00 | 0.00 | 76 | 1008.1 |
| 20260507095527 | 23 | 41 | 0.0 | 4.8 | 0.00 | 0.00 | 0.00 | 76 | 1008.1 |
| 20260507095024 | 23 | 0 | 1.6 | 6.4 | 0.00 | 0.00 | 0.00 | 76 | 1008.2 |
| 20260507094539 | 23 | 18 | 1.6 | 8.0 | 0.00 | 0.00 | 0.00 | 76 | 1008.2 |
| 20260507094024 | 23 | 25 | 3.2 | 8.0 | 0.00 | 0.00 | 0.00 | 76 | 1008.0 |
| 20260507093523 | 23 | 29 | 3.2 | 9.7 | 0.00 | 0.00 | 0.00 | 76 | 1008.0 |
| 20260507093035 | 23 | 26 | 3.2 | 9.7 | 0.00 | 0.00 | 0.00 | 75 | 1007.9 |
| 20260507092523 | 24 | 29 | 3.2 | 9.7 | 0.00 | 0.00 | 0.00 | 75 | 1007.9 |
| 20260507092024 | 24 | 35 | 4.8 | 9.7 | 0.00 | 0.00 | 0.00 | 75 | 1007.9 |
| 20260507091544 | 24 | 33 | 4.8 | 12.9 | 0.00 | 0.00 | 0.00 | 75 | 1008.0 |
| 20260507091024 | 24 | 32 | 4.8 | 12.9 | 0.00 | 0.00 | 0.00 | 75 | 1007.9 |
| 20260507090524 | 24 | 35 | 4.8 | 9.7 | 0.00 | 0.00 | 0.00 | 75 | 1007.8 |
| 20260507090040 | 24 | 33 | 4.8 | 12.9 | 0.00 | 0.00 | 0.00 | 75 | 1007.9 |
| 20260507085524 | 24 | 18 | 6.4 | 12.9 | 0.00 | 0.00 | 0.00 | 75 | 1007.8 |
| 20260507085024 | 24 | 52 | 6.4 | 12.9 | 0.00 | 0.00 | 0.00 | 75 | 1007.8 |
| 20260507084538 | 24 | 21 | 6.4 | 12.9 | 0.00 | 0.00 | 0.00 | 75 | 1007.8 |
| 20260507084023 | 24 | 39 | 6.4 | 16.1 | 0.00 | 0.00 | 0.00 | 74 | 1007.8 |
| 20260507083523 | 24 | 32 | 6.4 | 16.1 | 0.00 | 0.00 | 0.00 | 74 | 1007.8 |
| 20260507083036 | 24 | 23 | 8.0 | 14.5 | 0.00 | 0.00 | 0.00 | 74 | 1007.7 |
| 20260507082523 | 24 | 25 | 8.0 | 14.5 | 0.00 | 0.00 | 0.00 | 75 | 1007.9 |
| 20260507082023 | 24 | 31 | 8.0 | 14.5 | 0.00 | 0.00 | 0.00 | 75 | 1007.9 |
| 20260507081543 | 24 | 33 | 6.4 | 16.1 | 0.00 | 0.00 | 0.00 | 74 | 1007.8 |
| 20260507081023 | 24 | 20 | 6.4 | 16.1 | 0.00 | 0.00 | 0.00 | 74 | 1008.1 |
| 20260507080527 | 24 | 5 | 9.7 | 17.7 | 0.00 | 0.00 | 0.00 | 74 | 1008.3 |
| 20260507080040 | 24 | 360 | 6.4 | 17.7 | 0.00 | 0.00 | 0.00 | 74 | 1008.3 |
| 20260507075529 | 24 | 20 | 6.4 | 16.1 | 0.00 | 0.00 | 0.00 | 74 | 1008.3 |
| 20260507075023 | 23 | 353 | 6.4 | 16.1 | 0.00 | 0.00 | 0.00 | 75 | 1008.3 |
| 20260507074553 | 23 | 29 | 8.0 | 17.7 | 0.00 | 0.00 | 0.00 | 75 | 1008.6 |
| 20260507074209 | 23 | 358 | 6.4 | 17.7 | 0.00 | 0.00 | 0.00 | 75 | 1008.6 |
| 20260507073526 | 23 | 1 | 6.4 | 14.5 | 0.00 | 0.00 | 0.00 | 75 | 1008.6 |
| 20260507073037 | 23 | 353 | 6.4 | 14.5 | 0.00 | 0.00 | 0.00 | 75 | 1008.7 |
| 20260507072526 | 23 | 11 | 4.8 | 12.9 | 0.00 | 0.00 | 0.00 | 75 | 1008.7 |
| 20260507072023 | 23 | 25 | 6.4 | 14.5 | 0.00 | 0.00 | 0.00 | 75 | 1008.7 |
| 20260507071536 | 23 | 15 | 6.4 | 14.5 | 0.00 | 0.00 | 0.00 | 75 | 1008.8 |
| 20260507071023 | 23 | 18 | 6.4 | 14.5 | 0.00 | 0.00 | 0.00 | 76 | 1008.8 |
| 20260507070526 | 23 | 11 | 6.4 | 14.5 | 0.00 | 0.00 | 0.00 | 76 | 1008.9 |
| 20260507070035 | 23 | 352 | 6.4 | 14.5 | 0.00 | 0.00 | 0.00 | 76 | 1008.8 |
| 20260507065529 | 23 | 346 | 4.8 | 11.3 | 0.00 | 0.00 | 0.00 | 76 | 1008.8 |
| 20260507065024 | 23 | 359 | 3.2 | 11.3 | 0.00 | 0.00 | 0.00 | 76 | 1009.0 |
| 20260507064542 | 23 | 2 | 3.2 | 11.3 | 0.00 | 0.00 | 0.00 | 76 | 1009.0 |
| 20260507064023 | 23 | 5 | 4.8 | 12.9 | 0.00 | 0.00 | 0.00 | 75 | 1009.0 |
| 20260507063527 | 23 | 356 | 4.8 | 12.9 | 0.00 | 0.00 | 0.00 | 75 | 1009.1 |
| 20260507063035 | 23 | 17 | 6.4 | 11.3 | 0.00 | 0.00 | 0.00 | 75 | 1009.2 |
| 20260507062522 | 23 | 352 | 4.8 | 11.3 | 0.00 | 0.00 | 0.00 | 75 | 1009.3 |
| 20260507062027 | 23 | 358 | 4.8 | 11.3 | 0.00 | 0.00 | 0.00 | 76 | 1009.4 |
| 20260507061536 | 23 | 353 | 3.2 | 11.3 | 0.00 | 0.00 | 0.00 | 76 | 1009.6 |
| 20260507061024 | 23 | 342 | 4.8 | 11.3 | 0.00 | 0.00 | 0.00 | 76 | 1009.6 |
| 20260507060523 | 23 | 355 | 3.2 | 9.7 | 0.00 | 0.00 | 0.00 | 76 | 1009.6 |
| 20260507060036 | 23 | 338 | 4.8 | 12.9 | 0.00 | 0.00 | 0.00 | 76 | 1009.7 |
| 20260507055527 | 23 | 2 | 4.8 | 12.9 | 0.00 | 0.00 | 0.00 | 76 | 1009.6 |
| 20260507055027 | 24 | 360 | 4.8 | 14.5 | 0.00 | 0.00 | 0.00 | 75 | 1009.7 |
| 20260507054538 | 24 | 21 | 6.4 | 14.5 | 0.00 | 0.00 | 0.00 | 75 | 1009.7 |
| 20260507054024 | 24 | 2 | 4.8 | 14.5 | 0.00 | 0.00 | 0.00 | 75 | 1009.7 |
| 20260507053525 | 24 | 8 | 4.8 | 14.5 | 0.00 | 0.00 | 0.00 | 75 | 1009.9 |
| 20260507053049 | 24 | 17 | 6.4 | 14.5 | 0.00 | 0.00 | 0.00 | 75 | 1009.9 |
| 20260507052524 | 24 | 14 | 6.4 | 14.5 | 0.00 | 0.00 | 0.00 | 75 | 1010.0 |
| 20260507052027 | 24 | 1 | 6.4 | 17.7 | 0.00 | 0.00 | 0.00 | 75 | 1010.1 |
| 20260507051537 | 24 | 3 | 6.4 | 17.7 | 0.00 | 0.00 | 0.00 | 75 | 1010.2 |
| 20260507051026 | 24 | 8 | 4.8 | 12.9 | 0.00 | 0.00 | 0.00 | 75 | 1010.2 |
| 20260507050523 | 24 | 8 | 6.4 | 12.9 | 0.00 | 0.00 | 0.00 | 75 | 1010.3 |
| 20260507050036 | 24 | 358 | 6.4 | 11.3 | 0.00 | 0.00 | 0.00 | 75 | 1010.4 |
| 20260507045528 | 24 | 12 | 4.8 | 11.3 | 0.00 | 0.00 | 0.00 | 75 | 1010.5 |
| 20260507045023 | 24 | 8 | 4.8 | 11.3 | 0.00 | 0.00 | 0.00 | 75 | 1010.6 |
| 20260507044539 | 24 | 21 | 4.8 | 11.3 | 0.00 | 0.00 | 0.00 | 74 | 1010.7 |
| 20260507044026 | 24 | 11 | 6.4 | 14.5 | 0.00 | 0.00 | 0.00 | 74 | 1010.7 |
| 20260507043523 | 24 | 14 | 6.4 | 14.5 | 0.00 | 0.00 | 0.00 | 74 | 1010.9 |
| 20260507043035 | 24 | 15 | 6.4 | 14.5 | 0.00 | 0.00 | 0.00 | 74 | 1010.9 |
| 20260507042527 | 25 | 33 | 6.4 | 14.5 | 0.00 | 0.00 | 0.00 | 73 | 1011.0 |
| 20260507042024 | 25 | 14 | 6.4 | 14.5 | 0.00 | 0.00 | 0.00 | 73 | 1011.0 |
| 20260507041541 | 25 | 22 | 6.4 | 14.5 | 0.00 | 0.00 | 0.00 | 73 | 1011.1 |
| 20260507041023 | 25 | 17 | 8.0 | 16.1 | 0.00 | 0.00 | 0.00 | 73 | 1011.2 |
| 20260507040610 | 25 | 16 | 6.4 | 16.1 | 0.00 | 0.00 | 0.00 | 73 | 1011.2 |
| 20260507040039 | 25 | 24 | 9.7 | 17.7 | 0.00 | 0.00 | 0.00 | 73 | 1011.2 |
| 20260507035528 | 25 | 26 | 8.0 | 17.7 | 0.00 | 0.00 | 0.00 | 73 | 1011.2 |
| 20260507035024 | 25 | 28 | 8.0 | 17.7 | 0.00 | 0.00 | 0.00 | 73 | 1011.3 |
| 20260507034536 | 25 | 31 | 8.0 | 16.1 | 0.00 | 0.00 | 0.00 | 73 | 1011.4 |
| 20260507034028 | 25 | 12 | 8.0 | 16.1 | 0.00 | 0.00 | 0.00 | 73 | 1011.4 |
| 20260507033527 | 25 | 359 | 8.0 | 17.7 | 0.00 | 0.00 | 0.00 | 73 | 1011.5 |
| 20260507033037 | 25 | 14 | 8.0 | 17.7 | 0.00 | 0.00 | 0.00 | 72 | 1011.4 |
| 20260507032523 | 25 | 20 | 8.0 | 20.9 | 0.00 | 0.00 | 0.00 | 72 | 1011.5 |
| 20260507032025 | 25 | 29 | 8.0 | 20.9 | 0.00 | 0.00 | 0.00 | 72 | 1011.6 |
| 20260507031539 | 25 | 7 | 9.7 | 17.7 | 0.00 | 0.00 | 0.00 | 72 | 1011.8 |
| 20260507031029 | 25 | 24 | 8.0 | 17.7 | 0.00 | 0.00 | 0.00 | 72 | 1011.6 |
| 20260507030524 | 25 | 13 | 6.4 | 16.1 | 0.00 | 0.00 | 0.00 | 72 | 1011.7 |
| 20260507030047 | 25 | 16 | 8.0 | 16.1 | 0.00 | 0.00 | 0.00 | 72 | 1011.8 |
| 20260507025526 | 25 | 6 | 6.4 | 16.1 | 0.00 | 0.00 | 0.00 | 72 | 1011.9 |
| 20260507025023 | 25 | 21 | 6.4 | 16.1 | 0.00 | 0.00 | 0.00 | 72 | 1012.1 |
| 20260507024545 | 25 | 17 | 6.4 | 14.5 | 0.00 | 0.00 | 0.00 | 72 | 1012.1 |
| 20260507024025 | 25 | 14 | 4.8 | 12.9 | 0.00 | 0.00 | 0.00 | 72 | 1012.2 |
| 20260507023526 | 25 | 6 | 4.8 | 12.9 | 0.00 | 0.00 | 0.00 | 72 | 1012.1 |
| 20260507023036 | 25 | 13 | 6.4 | 16.1 | 0.00 | 0.00 | 0.00 | 72 | 1012.1 |
| 20260507022525 | 25 | 8 | 8.0 | 16.1 | 0.00 | 0.00 | 0.00 | 71 | 1012.1 |
| 20260507022030 | 25 | 12 | 6.4 | 12.9 | 0.00 | 0.00 | 0.00 | 71 | 1012.2 |
| 20260507021536 | 25 | 15 | 6.4 | 16.1 | 0.00 | 0.00 | 0.00 | 71 | 1012.2 |
| 20260507021027 | 25 | 360 | 6.4 | 16.1 | 0.00 | 0.00 | 0.00 | 71 | 1012.2 |
| 20260507020527 | 25 | 19 | 6.4 | 14.5 | 0.00 | 0.00 | 0.00 | 71 | 1012.3 |
| 20260507020035 | 25 | 22 | 6.4 | 14.5 | 0.00 | 0.00 | 0.00 | 71 | 1012.2 |
| 20260507015530 | 25 | 8 | 6.4 | 14.5 | 0.00 | 0.00 | 0.00 | 72 | 1012.3 |
| 20260507015027 | 25 | 18 | 4.8 | 14.5 | 0.00 | 0.00 | 0.00 | 72 | 1012.3 |
| 20260507014548 | 25 | 8 | 6.4 | 14.5 | 0.00 | 0.00 | 0.00 | 73 | 1012.4 |
| 20260507014206 | 25 | 7 | 4.8 | 11.3 | 0.00 | 0.00 | 0.00 | 73 | 1012.5 |
| 20260507013526 | 25 | 14 | 4.8 | 11.3 | 0.00 | 0.00 | 0.00 | 73 | 1012.6 |
| 20260507013035 | 25 | 17 | 4.8 | 11.3 | 0.00 | 0.00 | 0.00 | 74 | 1012.8 |
| 20260507012527 | 25 | 16 | 4.8 | 9.7 | 0.00 | 0.00 | 0.00 | 75 | 1012.7 |
| 20260507012031 | 25 | 14 | 4.8 | 11.3 | 0.00 | 0.00 | 0.00 | 75 | 1012.7 |
| 20260507011535 | 24 | 15 | 4.8 | 11.3 | 0.00 | 0.00 | 0.00 | 75 | 1012.8 |
| 20260507011026 | 25 | 14 | 6.4 | 11.3 | 0.00 | 0.00 | 0.00 | 75 | 1012.8 |
| 20260507010523 | 25 | 18 | 4.8 | 9.7 | 0.00 | 0.00 | 0.00 | 75 | 1012.7 |
| 20260507010038 | 25 | 44 | 4.8 | 9.7 | 0.00 | 0.00 | 0.00 | 75 | 1012.7 |
| 20260507005524 | 25 | 31 | 3.2 | 9.7 | 0.00 | 0.00 | 0.00 | 75 | 1012.8 |
| 20260507005023 | 25 | 36 | 4.8 | 9.7 | 0.00 | 0.00 | 0.00 | 75 | 1012.8 |
| 20260507004536 | 25 | 29 | 4.8 | 9.7 | 0.00 | 0.00 | 0.00 | 75 | 1012.7 |
| 20260507004027 | 24 | 22 | 4.8 | 8.0 | 0.00 | 0.00 | 0.00 | 76 | 1012.8 |
| 20260507003527 | 25 | 28 | 3.2 | 8.0 | 0.00 | 0.00 | 0.00 | 76 | 1012.9 |
| 20260507003105 | 25 | 25 | 3.2 | 6.4 | 0.00 | 0.00 | 0.00 | 76 | 1013.0 |
| 20260506234028 | 26 | 11 | 4.8 | 11.3 | 0.00 | 0.00 | 0.00 | 72 | 1013.0 |
| 20260506233528 | 26 | 12 | 4.8 | 11.3 | 0.00 | 0.00 | 0.00 | 72 | 1013.1 |
| 20260506233039 | 26 | 32 | 4.8 | 12.9 | 0.00 | 0.00 | 0.00 | 72 | 1013.0 |
| 20260506232527 | 26 | 353 | 4.8 | 12.9 | 0.00 | 0.00 | 0.00 | 72 | 1013.0 |
| 20260506232029 | 26 | 15 | 6.4 | 12.9 | 0.00 | 0.00 | 0.00 | 72 | 1013.0 |
| 20260506231544 | 26 | 8 | 4.8 | 12.9 | 0.00 | 0.00 | 0.00 | 72 | 1013.1 |
| 20260506231030 | 26 | 24 | 4.8 | 9.7 | 0.00 | 0.00 | 0.00 | 72 | 1013.1 |
| 20260506230527 | 26 | 30 | 4.8 | 9.7 | 0.00 | 0.00 | 0.00 | 73 | 1013.0 |
| 20260506230046 | 26 | 29 | 4.8 | 9.7 | 0.00 | 0.00 | 0.00 | 73 | 1013.0 |
| 20260506225531 | 26 | 26 | 3.2 | 9.7 | 0.00 | 0.00 | 0.00 | 73 | 1013.0 |
| 20260506225028 | 26 | 36 | 4.8 | 9.7 | 0.00 | 0.00 | 0.00 | 73 | 1013.1 |
| 20260506224541 | 26 | 39 | 4.8 | 9.7 | 0.00 | 0.00 | 0.00 | 73 | 1013.1 |
| 20260506224032 | 27 | 37 | 3.2 | 11.3 | 0.00 | 0.00 | 0.00 | 73 | 1013.1 |
| 20260506223527 | 27 | 31 | 4.8 | 11.3 | 0.00 | 0.00 | 0.00 | 73 | 1013.1 |
| 20260506223043 | 27 | 47 | 4.8 | 11.3 | 0.00 | 0.00 | 0.00 | 72 | 1013.1 |
| 20260506222528 | 27 | 54 | 4.8 | 11.3 | 0.00 | 0.00 | 0.00 | 71 | 1013.2 |
| 20260506222027 | 27 | 43 | 4.8 | 9.7 | 0.00 | 0.00 | 0.00 | 70 | 1013.1 |
| 20260506221543 | 27 | 51 | 4.8 | 9.7 | 0.00 | 0.00 | 0.00 | 70 | 1013.2 |
| 20260506221031 | 27 | 42 | 4.8 | 8.0 | 0.00 | 0.00 | 0.00 | 70 | 1013.2 |
| 20260506220611 | 27 | 0 | 0.0 | 0.0 | 0.00 | 0.00 | 0.00 | 70 | 1013.3 |
| 20260506220041 | 27 | 0 | 0.0 | 0.0 | 0.00 | 0.00 | 0.00 | 70 | 1013.2 |
| 20260506215527 | 28 | 0 | 0.0 | 0.0 | 0.00 | 0.00 | 0.00 | 70 | 1013.2 |
| 20260506215030 | 28 | 0 | 0.0 | 0.0 | 0.00 | 0.00 | 0.00 | 70 | 1013.2 |
| 20260506214536 | 28 | 0 | 0.0 | 0.0 | 0.00 | 0.00 | 0.00 | 70 | 1013.2 |
| 20260506214028 | 28 | 0 | 0.0 | 0.0 | 0.00 | 0.00 | 0.00 | 69 | 1013.1 |
| 20260506213528 | 28 | 0 | 0.0 | 0.0 | 0.00 | 0.00 | 0.00 | 69 | 1013.0 |
| 20260506213051 | 28 | 0 | 0.0 | 0.0 | 0.00 | 0.00 | 0.00 | 69 | 1013.1 |
| 20260506212528 | 28 | 0 | 0.0 | 0.0 | 0.00 | 0.00 | 0.00 | 68 | 1013.2 |
| 20260506212028 | 28 | 0 | 0.0 | 0.0 | 0.00 | 0.00 | 0.00 | 68 | 1013.2 |
| 20260506211543 | 28 | 0 | 0.0 | 0.0 | 0.00 | 0.00 | 0.00 | 68 | 1013.1 |
| 20260506211029 | 28 | 0 | 0.0 | 3.2 | 0.00 | 0.00 | 0.00 | 67 | 1013.1 |
| 20260506210528 | 28 | 0 | 0.0 | 3.2 | 0.00 | 0.00 | 0.00 | 67 | 1013.1 |
| 20260506210050 | 28 | 0 | 0.0 | 3.2 | 0.00 | 0.00 | 0.00 | 67 | 1013.2 |
| 20260506205530 | 29 | 29 | 1.6 | 3.2 | 0.00 | 0.00 | 0.00 | 66 | 1013.3 |
| 20260506205030 | 29 | 10 | 1.6 | 4.8 | 0.00 | 0.00 | 0.00 | 66 | 1013.5 |
| 20260506204543 | 29 | 0 | 1.6 | 4.8 | 0.00 | 0.00 | 0.00 | 65 | 1013.4 |
| 20260506204031 | 30 | 358 | 0.0 | 4.8 | 0.00 | 0.00 | 0.00 | 64 | 1013.2 |
| 20260506203527 | 30 | 0 | 0.0 | 0.0 | 0.00 | 0.00 | 0.00 | 64 | 1013.2 |
| 20260506203037 | 30 | 0 | 0.0 | 0.0 | 0.00 | 0.00 | 0.00 | 63 | 1013.1 |
| 20260506202528 | 30 | 0 | 0.0 | 0.0 | 0.00 | 0.00 | 0.00 | 62 | 1013.2 |
| 20260506202028 | 30 | 0 | 0.0 | 0.0 | 0.00 | 0.00 | 0.00 | 62 | 1013.3 |
| 20260506201544 | 31 | 0 | 0.0 | 0.0 | 0.00 | 0.00 | 0.00 | 61 | 1013.4 |
| 20260506201028 | 31 | 0 | 0.0 | 0.0 | 0.00 | 0.00 | 0.00 | 61 | 1013.3 |
| 20260506200531 | 31 | 0 | 0.0 | 0.0 | 0.00 | 0.00 | 0.00 | 61 | 1013.4 |
| 20260506200043 | 31 | 0 | 0.0 | 0.0 | 0.00 | 0.00 | 0.00 | 62 | 1013.5 |
| 20260506195528 | 31 | 0 | 0.0 | 0.0 | 0.00 | 0.00 | 0.00 | 65 | 1013.5 |
| 20260506195028 | 31 | 0 | 0.0 | 4.8 | 0.00 | 0.00 | 0.00 | 63 | 1013.4 |
| 20260506194538 | 31 | 0 | 0.0 | 4.8 | 0.00 | 0.00 | 0.00 | 63 | 1013.4 |
| 20260506194211 | 31 | 314 | 0.0 | 4.8 | 0.00 | 0.00 | 0.00 | 62 | 1013.5 |
| 20260506193527 | 31 | 0 | 0.0 | 1.6 | 0.00 | 0.00 | 0.00 | 65 | 1013.4 |
| 20260506193035 | 30 | 333 | 0.0 | 1.6 | 0.00 | 0.00 | 0.00 | 65 | 1013.4 |
| 20260506192531 | 30 | 0 | 0.0 | 1.6 | 0.00 | 0.00 | 0.00 | 64 | 1013.6 |
| 20260506192027 | 30 | 0 | 0.0 | 4.8 | 0.00 | 0.00 | 0.00 | 63 | 1013.5 |
| 20260506191544 | 31 | 0 | 0.0 | 4.8 | 0.00 | 0.00 | 0.00 | 62 | 1013.5 |
| 20260506191028 | 31 | 333 | 0.0 | 4.8 | 0.00 | 0.00 | 0.00 | 61 | 1013.5 |
| 20260506190527 | 31 | 0 | 0.0 | 4.8 | 0.00 | 0.00 | 0.00 | 61 | 1013.5 |
| 20260506190043 | 31 | 0 | 0.0 | 4.8 | 0.00 | 0.00 | 0.00 | 63 | 1013.5 |
| 20260506185527 | 31 | 324 | 1.6 | 6.4 | 0.00 | 0.00 | 0.00 | 63 | 1013.5 |
| 20260506185028 | 31 | 0 | 1.6 | 6.4 | 0.00 | 0.00 | 0.00 | 62 | 1013.5 |
| 20260506184541 | 31 | 324 | 1.6 | 8.0 | 0.00 | 0.00 | 0.00 | 62 | 1013.5 |
| 20260506184030 | 31 | 347 | 0.0 | 11.3 | 0.00 | 0.00 | 0.00 | 63 | 1013.5 |
| 20260506183528 | 31 | 335 | 3.2 | 11.3 | 0.00 | 0.00 | 0.00 | 61 | 1013.5 |
| 20260506183036 | 31 | 341 | 4.8 | 11.3 | 0.00 | 0.00 | 0.00 | 61 | 1013.4 |
| 20260506182527 | 31 | 330 | 4.8 | 11.3 | 0.00 | 0.00 | 0.00 | 62 | 1013.7 |
| 20260506182027 | 31 | 312 | 3.2 | 12.9 | 0.00 | 0.00 | 0.00 | 62 | 1013.6 |
| 20260506181537 | 31 | 318 | 4.8 | 12.9 | 0.00 | 0.00 | 0.00 | 62 | 1013.8 |
| 20260506181028 | 31 | 322 | 3.2 | 11.3 | 0.00 | 0.00 | 0.00 | 63 | 1013.8 |
| 20260506180530 | 31 | 360 | 4.8 | 12.9 | 0.00 | 0.00 | 0.00 | 65 | 1013.9 |
| 20260506180050 | 31 | 6 | 3.2 | 14.5 | 0.00 | 0.00 | 0.00 | 63 | 1013.9 |
| 20260506175527 | 31 | 351 | 4.8 | 14.5 | 0.00 | 0.00 | 0.00 | 62 | 1014.1 |
| 20260506175028 | 31 | 343 | 3.2 | 11.3 | 0.00 | 0.00 | 0.00 | 62 | 1014.1 |
| 20260506174541 | 31 | 320 | 1.6 | 9.7 | 0.00 | 0.00 | 0.00 | 64 | 1014.2 |
| 20260506174028 | 31 | 321 | 3.2 | 11.3 | 0.00 | 0.00 | 0.00 | 63 | 1014.3 |
| 20260506173527 | 31 | 343 | 3.2 | 16.1 | 0.00 | 0.00 | 0.00 | 62 | 1014.3 |
| 20260506173043 | 31 | 319 | 3.2 | 16.1 | 0.00 | 0.00 | 0.00 | 63 | 1014.2 |
| 20260506172527 | 31 | 334 | 4.8 | 12.9 | 0.00 | 0.00 | 0.00 | 61 | 1014.2 |
| 20260506172028 | 31 | 319 | 4.8 | 14.5 | 0.00 | 0.00 | 0.00 | 63 | 1014.2 |
| 20260506171537 | 31 | 341 | 4.8 | 14.5 | 0.00 | 0.00 | 0.00 | 64 | 1014.3 |
| 20260506171031 | 31 | 331 | 4.8 | 14.5 | 0.00 | 0.00 | 0.00 | 63 | 1014.4 |